Location: Guayaquil
(2.1667°S, 79.9000°W)
Time: 18:49:34
(UTC-05:00)

OTV 5 (USA 277) - Visible Passes

Search period start: 23 September 2017 00:00
Search period end: 03 October 2017 00:00
Orbit: 404 x 417 km, 43.0° (Epoch: 07 September)

Date Brightness Start Highest point End Pass type
(mag) Time Alt. Az. Time Alt. Az. Time Alt. Az.
29 Sep ? 19:52:15 10° SSW 19:52:49 14° SSW 19:52:49 14° SSW visible
30 Sep ? 19:01:46 10° S 19:04:25 21° SE 19:04:56 20° ESE visible
01 Oct ? 19:47:27 10° WSW 19:49:58 32° WNW 19:49:58 32° WNW visible
02 Oct ? 18:56:10 10° SW 18:59:32 79° NW 19:02:14 15° NE visible
